Milwaukee, WI

12:13 AM CDT on May 22, 2018 (GMT -0500)
Gen Mitchell International

Weather History for KMKE - October, 2014

Change the Weather History Date:

Tuesday, October 28, 2014

  Actual Average Record
Temperature  
Mean Temperature 58 °F 47 °F  
Max Temperature 67 °F 55 °F 74 °F (1896)
Min Temperature 48 °F 40 °F 19 °F (1925)
Degree Days  
Heating Degree Days 7 18  
Month to date heating degree days 356 378  
Since 1 July heating degree days 531 530  
Cooling Degree Days 0 0  
Month to date cooling degree days 4 3  
Year to date cooling degree days 464 637  
Growing Degree Days 2 (Base 50)    
Moisture  
Dew Point 40 °F    
Average Humidity 55    
Maximum Humidity 68    
Minimum Humidity 41    
Precipitation  
Precipitation T in 0.09 in 1.52 in (1874)
Month to date precipitation 2.79 2.39  
Year to date precipitation 29.22 29.75  
Snow  
Snow 0.00 in 0.00 in 0.10 in (1925)
Month to date snowfall 0.0 0.2  
Since 1 July snowfall 0.0 0.2  
Since 1 September snowfall 0.0 0.2  
Snow Depth 0.00 in    
Sea Level Pressure  
Sea Level Pressure 29.77 in    
Wind  
Wind Speed 15 mph (WSW)    
Max Wind Speed 25 mph    
Max Gust Speed 36 mph    
Visibility 10 miles    
Events Rain    
T = Trace of Precipitation, MM = Missing Value Source: NWS Daily Summary

Daily Weather History Graph

Daily Weather History Graph

Search for Another Location

Airport or City:

Astronomy

Oct. 28, 2014 Rise Set
Actual Time 7:20 AM CDT 5:49 PM CDT
Civil Twilight 6:51 AM CDT 6:18 PM CDT
Nautical Twilight 6:18 AM CDT 6:51 PM CDT
Astronomical Twilight 5:45 AM CDT 7:24 PM CDT
Moon 11:52 AM CDT (10/28) 9:52 PM CDT (10/28)
Length of Visible Light 11h 26m
Length of Day
10h 28m
Waxing Crescent, 24% of the Moon is Illuminated
Oct 28
Waxing Crescent
Oct 30
First Quarter
Nov 6
Full
Nov 14
Last Quarter
Nov 22
New

Hourly Weather History & Observations

Time (CDT) Temp. Dew Point Humidity Pressure Visibility Wind Dir Wind Speed Gust Speed Precip Events Conditions
12:52 AM 66.9 °F 55.9 °F 68% 29.57 in 10.0 mi SW 15.0 mph - N/A   Mostly Cloudy
1:52 AM 66.9 °F 55.9 °F 68% 29.57 in 10.0 mi SW 16.1 mph - N/A   Overcast
2:52 AM 66.0 °F 55.9 °F 70% 29.59 in 10.0 mi WSW 11.5 mph - N/A   Overcast
3:52 AM 64.9 °F 54.0 °F 68% 29.61 in 10.0 mi West 11.5 mph - N/A   Overcast
4:52 AM 62.6 °F 46.4 °F 55% 29.65 in 10.0 mi West 9.2 mph 19.6 mph N/A   Clear
5:52 AM 59.0 °F 44.6 °F 59% 29.68 in 10.0 mi WNW 12.7 mph 21.9 mph N/A   Scattered Clouds
6:52 AM 57.0 °F 43.0 °F 59% 29.69 in 10.0 mi West 16.1 mph 27.6 mph N/A   Mostly Cloudy
7:52 AM 55.0 °F 39.9 °F 57% 29.73 in 10.0 mi West 16.1 mph - 0.00 in Rain Light Rain
8:52 AM 54.0 °F 39.0 °F 57% 29.75 in 10.0 mi West 12.7 mph 21.9 mph 0.00 in   Mostly Cloudy
9:52 AM 54.0 °F 39.9 °F 59% 29.77 in 10.0 mi West 13.8 mph - N/A   Partly Cloudy
10:52 AM 55.0 °F 39.0 °F 55% 29.77 in 10.0 mi WSW 17.3 mph 23.0 mph N/A   Partly Cloudy
11:52 AM 57.0 °F 35.1 °F 44% 29.78 in 10.0 mi WSW 20.7 mph 27.6 mph N/A   Partly Cloudy
12:52 PM 55.9 °F 32.0 °F 40% 29.79 in 10.0 mi WSW 17.3 mph 29.9 mph N/A   Partly Cloudy
1:52 PM 55.9 °F 32.0 °F 40% 29.81 in 10.0 mi West 20.7 mph 32.2 mph N/A   Partly Cloudy
2:52 PM 55.0 °F 33.1 °F 43% 29.82 in 10.0 mi West 16.1 mph 26.5 mph N/A   Scattered Clouds
3:52 PM 53.1 °F 32.0 °F 45% 29.84 in 10.0 mi West 21.9 mph 29.9 mph N/A   Mostly Cloudy
4:52 PM 52.0 °F 32.0 °F 47% 29.87 in 10.0 mi West 17.3 mph 26.5 mph N/A   Mostly Cloudy
5:52 PM 51.1 °F 32.0 °F 48% 29.89 in 10.0 mi West 17.3 mph 24.2 mph N/A   Scattered Clouds
6:52 PM 50.0 °F 33.1 °F 52% 29.91 in 10.0 mi WSW 12.7 mph - N/A   Scattered Clouds
7:52 PM 50.0 °F 33.1 °F 52% 29.93 in 10.0 mi WSW 12.7 mph - N/A   Mostly Cloudy
8:52 PM 48.9 °F 34.0 °F 56% 29.93 in 10.0 mi WSW 15.0 mph - N/A   Mostly Cloudy
9:52 PM 48.9 °F 35.1 °F 59% 29.92 in 10.0 mi WSW 13.8 mph 21.9 mph N/A   Scattered Clouds
10:52 PM 48.0 °F 35.1 °F 61% 29.91 in 10.0 mi WSW 9.2 mph - N/A   Scattered Clouds
11:52 PM 48.0 °F 35.1 °F 61% 29.90 in 10.0 mi West 9.2 mph 19.6 mph N/A   Mostly Cloudy